sat.trackr.live / text

‹ back to catalog

GEMS2-AMETHYST

NORAD 68505 · 2026-067CT

PAYLOAD ACTIVE UNKNOWN

§ Identity

Operator
Country
US
Launch date
2026-03-30
Launch site
AFWTR
Launch vehicle
Mass (kg)
RCS (m²)

External: N2YO · Heavens-Above · Gunter

§ Orbital elements

Epoch: 2026-09-20T03:54:33.379776Z

Period
96.53 min
Inclination
97.7704°
Eccentricity
0.0007006
Mean motion
14.91743714 rev/d
Perigee alt
587.6 km
Apogee alt
597.4 km
Semi-major
6,970.6 km
B*
3.3099e-4
RAAN
219.8521°
Arg perigee
88.5534°
Mean anomaly
271.6487°
Rev number
2,587

§ Raw data

GEMS2-AMETHYST1 68505U 26067CT  26263.16288634  .00003279  00000+0  33099-3 0  99992 68505  97.7704 219.8521 0007006  88.5534 271.6487 14.91743714 25872

JSON: /api/v1/satellites/68505 · /tle

For live sub-satellite position, see the globe view (requires WebGL).

§ Visibility from observer

Set your observer location to see the next 7 days of passes ≥ 10°. The values pass through the URL so the page stays shareable.

No JS? Fill the form by hand. The geolocation button needs JavaScript.